Time,TemperatureF,DewpointF,PressureIn,WindDirection,WindDirectionDegrees,WindSpeedMPH,WindSpeedGustMPH,Humidity,HourlyPrecipIn,Conditions,Clouds,dailyrainin,SoftwareType,DateUTC
2013-03-02 00:00:00,41.2,29.5,30.34,NNW,329,3.0,3.0,63,0.00,,,0.00,Wunderground v.1.15,2013-03-02 06:00:00,
2013-03-02 00:10:00,40.9,29.3,30.35,North,9,2.0,2.0,63,0.00,,,0.00,Wunderground v.1.15,2013-03-02 06:10:00,
2013-03-02 00:15:00,40.6,29.4,30.35,NNW,328,2.0,2.0,64,0.00,,,0.00,Wunderground v.1.15,2013-03-02 06:15:00,
2013-03-02 00:25:00,40.3,29.1,30.35,NNW,330,2.0,2.0,64,0.00,,,0.00,Wunderground v.1.15,2013-03-02 06:25:00,
2013-03-02 00:30:00,40.1,28.9,30.35,NNW,345,1.0,1.0,64,0.00,,,0.00,Wunderground v.1.15,2013-03-02 06:30:00,
2013-03-02 00:40:00,39.8,29.0,30.35,NW,319,2.0,2.0,65,0.00,,,0.00,Wunderground v.1.15,2013-03-02 06:40:00,
2013-03-02 00:50:00,39.5,29.1,30.36,NNW,343,2.0,2.0,66,0.00,,,0.00,Wunderground v.1.15,2013-03-02 06:50:00,
2013-03-02 00:55:00,39.3,28.9,30.36,NNW,340,2.0,2.0,66,0.00,,,0.00,Wunderground v.1.15,2013-03-02 06:55:00,
2013-03-02 01:01:00,39.1,29.1,30.36,NNE,31,2.0,2.0,67,0.00,,,0.00,Wunderground v.1.15,2013-03-02 07:01:00,
2013-03-02 01:10:00,38.8,28.8,30.36,NW,314,1.0,4.0,67,0.00,,,0.00,Wunderground v.1.15,2013-03-02 07:10:00,
2013-03-02 01:20:00,38.4,28.8,30.36,NW,319,3.0,3.0,68,0.00,,,0.00,Wunderground v.1.15,2013-03-02 07:20:00,
2013-03-02 01:30:00,37.9,28.6,30.37,North,360,2.0,2.0,69,0.00,,,0.00,Wunderground v.1.15,2013-03-02 07:30:00,
2013-03-02 01:40:00,37.5,28.2,30.37,NW,323,2.0,6.0,69,0.00,,,0.00,Wunderground v.1.15,2013-03-02 07:40:00,
2013-03-02 01:45:00,37.4,28.2,30.37,North,10,3.0,3.0,69,0.00,,,0.00,Wunderground v.1.15,2013-03-02 07:45:00,
2013-03-02 01:55:00,37.1,27.5,30.37,NNW,334,3.0,3.0,68,0.00,,,0.00,Wunderground v.1.15,2013-03-02 07:55:00,
2013-03-02 02:01:00,37.0,27.4,30.37,NW,324,3.0,3.0,68,0.00,,,0.00,Wunderground v.1.15,2013-03-02 08:01:00,
2013-03-02 02:10:00,36.8,27.2,30.37,NW,319,3.0,4.0,68,0.00,,,0.00,Wunderground v.1.15,2013-03-02 08:10:00,
2013-03-02 02:20:00,36.5,27.3,30.37,North,360,2.0,2.0,69,0.00,,,0.00,Wunderground v.1.15,2013-03-02 08:20:00,
2013-03-02 02:30:00,36.3,27.1,30.37,NW,317,3.0,4.0,69,0.00,,,0.00,Wunderground v.1.15,2013-03-02 08:30:00,
2013-03-02 02:40:00,36.0,26.8,30.37,WNW,289,2.0,6.0,69,0.00,,,0.00,Wunderground v.1.15,2013-03-02 08:40:00,
2013-03-02 02:45:00,36.0,26.8,30.37,NW,318,3.0,7.0,69,0.00,,,0.00,Wunderground v.1.15,2013-03-02 08:45:00,
2013-03-02 02:50:00,35.9,26.7,30.37,NNW,333,2.0,7.0,69,0.00,,,0.00,Wunderground v.1.15,2013-03-02 08:50:00,
2013-03-02 03:00:00,35.6,26.8,30.36,NW,320,2.0,2.0,70,0.00,,,0.00,Wunderground v.1.15,2013-03-02 09:00:00,
2013-03-02 03:10:00,35.4,26.6,30.36,NW,322,2.0,2.0,70,0.00,,,0.00,Wunderground v.1.15,2013-03-02 09:10:00,
2013-03-02 03:15:00,35.3,26.5,30.36,West,275,2.0,4.0,70,0.00,,,0.00,Wunderground v.1.15,2013-03-02 09:15:00,
2013-03-02 03:25:00,35.2,26.7,30.37,NW,305,3.0,3.0,71,0.00,,,0.00,Wunderground v.1.15,2013-03-02 09:25:00,
2013-03-02 03:35:00,35.1,26.6,30.38,NW,316,2.0,2.0,71,0.00,,,0.00,Wunderground v.1.15,2013-03-02 09:35:00,
2013-03-02 03:45:00,35.0,26.5,30.38,NNW,329,4.0,4.0,71,0.00,,,0.00,Wunderground v.1.15,2013-03-02 09:45:00,
2013-03-02 03:55:00,34.8,26.4,30.38,NW,317,3.0,6.0,71,0.00,,,0.00,Wunderground v.1.15,2013-03-02 09:55:00,
2013-03-02 04:00:00,34.8,26.4,30.38,NW,320,3.0,3.0,71,0.00,,,0.00,Wunderground v.1.15,2013-03-02 10:00:00,
2013-03-02 04:10:00,34.7,26.3,30.38,WNW,300,2.0,2.0,71,0.00,,,0.00,Wunderground v.1.15,2013-03-02 10:10:00,
2013-03-02 04:20:00,34.5,26.1,30.38,NW,321,2.0,6.0,71,0.00,,,0.00,Wunderground v.1.15,2013-03-02 10:20:00,
2013-03-02 04:25:00,34.4,26.0,30.38,NW,309,3.0,6.0,71,0.00,,,0.00,Wunderground v.1.15,2013-03-02 10:25:00,
2013-03-02 04:35:00,34.3,25.9,30.39,NW,315,4.0,4.0,71,0.00,,,0.00,Wunderground v.1.15,2013-03-02 10:35:00,
2013-03-02 04:45:00,34.0,25.9,30.39,NW,324,2.0,3.0,72,0.00,,,0.00,Wunderground v.1.15,2013-03-02 10:45:00,
2013-03-02 04:50:00,33.9,25.8,30.39,NW,316,2.0,5.0,72,0.00,,,0.00,Wunderground v.1.15,2013-03-02 10:50:00,
2013-03-02 05:00:00,33.8,25.7,30.39,NW,321,3.0,5.0,72,0.00,,,0.00,Wunderground v.1.15,2013-03-02 11:00:00,
2013-03-02 05:10:00,33.6,25.5,30.39,NW,313,2.0,2.0,72,0.00,,,0.00,Wunderground v.1.15,2013-03-02 11:10:00,
2013-03-02 05:15:00,33.5,25.8,30.40,NW,321,2.0,5.0,73,0.00,,,0.00,Wunderground v.1.15,2013-03-02 11:15:00,
2013-03-02 05:25:00,33.4,26.0,30.40,NW,305,3.0,5.0,74,0.00,,,0.00,Wunderground v.1.15,2013-03-02 11:25:00,
2013-03-02 05:30:00,33.3,25.9,30.40,NNW,346,3.0,4.0,74,0.00,,,0.00,Wunderground v.1.15,2013-03-02 11:30:00,
2013-03-02 05:40:00,33.2,25.8,30.41,NNW,336,3.0,3.0,74,0.00,,,0.00,Wunderground v.1.15,2013-03-02 11:40:00,
2013-03-02 05:50:00,33.1,25.7,30.41,WNW,294,3.0,4.0,74,0.00,,,0.00,Wunderground v.1.15,2013-03-02 11:50:00,
2013-03-02 05:55:00,33.0,25.6,30.41,NNW,331,3.0,4.0,74,0.00,,,0.00,Wunderground v.1.15,2013-03-02 11:55:00,
2013-03-02 06:00:00,33.0,25.6,30.41,WNW,296,3.0,3.0,74,0.00,,,0.00,Wunderground v.1.15,2013-03-02 12:00:00,
2013-03-02 06:10:00,32.9,25.5,30.41,NW,323,2.0,2.0,74,0.00,,,0.00,Wunderground v.1.15,2013-03-02 12:10:00,
2013-03-02 06:20:00,32.7,25.3,30.42,NW,323,3.0,4.0,74,0.00,,,0.00,Wunderground v.1.15,2013-03-02 12:20:00,
2013-03-02 06:30:00,32.5,25.5,30.42,NNW,331,2.0,4.0,75,0.00,,,0.00,Wunderground v.1.15,2013-03-02 12:30:00,
2013-03-02 06:40:00,32.3,25.3,30.42,NNW,329,2.0,2.0,75,0.00,,,0.00,Wunderground v.1.15,2013-03-02 12:40:00,
2013-03-02 06:50:00,32.1,25.1,30.42,NW,318,2.0,2.0,75,0.00,,,0.00,Wunderground v.1.15,2013-03-02 12:50:00,
2013-03-02 07:00:00,32.0,25.3,30.43,NNW,335,2.0,2.0,76,0.00,,,0.00,Wunderground v.1.15,2013-03-02 13:00:00,
2013-03-02 07:10:00,32.0,25.3,30.44,NNW,332,3.0,3.0,76,0.00,,,0.00,Wunderground v.1.15,2013-03-02 13:10:00,
2013-03-02 07:20:00,32.0,25.3,30.44,North,350,2.0,2.0,76,0.00,,,0.00,Wunderground v.1.15,2013-03-02 13:20:00,
2013-03-02 07:30:00,32.1,25.4,30.45,North,350,3.0,3.0,76,0.00,,,0.00,Wunderground v.1.15,2013-03-02 13:30:00,
2013-03-02 07:40:00,32.2,25.2,30.45,NNW,331,3.0,3.0,75,0.00,,,0.00,Wunderground v.1.15,2013-03-02 13:40:00,
2013-03-02 07:50:00,32.4,25.4,30.46,NNW,340,2.0,2.0,75,0.00,,,0.00,Wunderground v.1.15,2013-03-02 13:50:00,
2013-03-02 07:55:00,32.5,25.1,30.46,NNW,335,2.0,2.0,74,0.00,,,0.00,Wunderground v.1.15,2013-03-02 13:55:00,
2013-03-02 08:00:00,32.7,25.0,30.46,NW,314,2.0,4.0,73,0.00,,,0.00,Wunderground v.1.15,2013-03-02 14:00:00,
2013-03-02 08:10:00,33.2,24.5,30.47,NW,319,3.0,3.0,70,0.00,,,0.00,Wunderground v.1.15,2013-03-02 14:10:00,
2013-03-02 08:15:00,33.4,24.0,30.47,NNW,344,4.0,5.0,68,0.00,,,0.00,Wunderground v.1.15,2013-03-02 14:15:00,
2013-03-02 08:20:00,33.5,23.7,30.47,North,5,4.0,4.0,67,0.00,,,0.00,Wunderground v.1.15,2013-03-02 14:20:00,
2013-03-02 08:30:00,34.3,23.7,30.47,NNW,343,2.0,3.0,65,0.00,,,0.00,Wunderground v.1.15,2013-03-02 14:30:00,
2013-03-02 08:40:00,34.7,23.0,30.48,NNE,15,4.0,5.0,62,0.00,,,0.00,Wunderground v.1.15,2013-03-02 14:40:00,
2013-03-02 08:50:00,35.3,22.8,30.48,NW,307,3.0,5.0,60,0.00,,,0.00,Wunderground v.1.15,2013-03-02 14:50:00,
2013-03-02 08:55:00,35.4,22.1,30.48,NW,317,4.0,5.0,58,0.00,,,0.00,Wunderground v.1.15,2013-03-02 14:55:00,
2013-03-02 09:00:00,35.7,22.4,30.48,NNW,339,3.0,3.0,58,0.00,,,0.00,Wunderground v.1.15,2013-03-02 15:00:00,
2013-03-02 09:10:00,35.9,22.5,30.48,NW,309,4.0,5.0,58,0.00,,,0.00,Wunderground v.1.15,2013-03-02 15:10:00,
2013-03-02 09:20:00,36.5,23.1,30.48,WNW,301,4.0,4.0,58,0.00,,,0.00,Wunderground v.1.15,2013-03-02 15:20:00,
2013-03-02 09:30:00,36.7,22.5,30.48,NNE,16,4.0,4.0,56,0.00,,,0.00,Wunderground v.1.15,2013-03-02 15:30:00,
2013-03-02 09:40:00,37.2,22.9,30.47,North,5,4.0,4.0,56,0.00,,,0.00,Wunderground v.1.15,2013-03-02 15:40:00,
2013-03-02 09:50:00,37.7,23.0,30.48,North,5,3.0,3.0,55,0.00,,,0.00,Wunderground v.1.15,2013-03-02 15:50:00,
2013-03-02 10:00:00,38.6,23.4,30.48,North,355,3.0,3.0,54,0.00,,,0.00,Wunderground v.1.15,2013-03-02 16:00:00,
2013-03-02 10:10:00,38.8,23.6,30.48,North,351,4.0,4.0,54,0.00,,,0.00,Wunderground v.1.15,2013-03-02 16:10:00,
2013-03-02 10:20:00,39.0,22.8,30.48,West,279,4.0,4.0,52,0.00,,,0.00,Wunderground v.1.15,2013-03-02 16:20:00,
2013-03-02 10:30:00,39.7,23.5,30.47,North,5,3.0,4.0,52,0.00,,,0.00,Wunderground v.1.15,2013-03-02 16:30:00,
2013-03-02 10:35:00,40.0,23.3,30.47,NW,309,3.0,4.0,51,0.00,,,0.00,Wunderground v.1.15,2013-03-02 16:35:00,
2013-03-02 10:45:00,40.4,23.2,30.46,NW,325,3.0,3.0,50,0.00,,,0.00,Wunderground v.1.15,2013-03-02 16:45:00,
2013-03-02 10:55:00,40.9,23.7,30.46,NW,317,3.0,4.0,50,0.00,,,0.00,Wunderground v.1.15,2013-03-02 16:55:00,
2013-03-02 11:00:00,41.3,23.6,30.46,WNW,300,3.0,7.0,49,0.00,,,0.00,Wunderground v.1.15,2013-03-02 17:00:00,
2013-03-02 11:10:00,41.6,23.8,30.46,North,5,3.0,4.0,49,0.00,,,0.00,Wunderground v.1.15,2013-03-02 17:10:00,
2013-03-02 11:15:00,42.2,23.9,30.46,NNW,344,3.0,4.0,48,0.00,,,0.00,Wunderground v.1.15,2013-03-02 17:15:00,
2013-03-02 11:25:00,42.6,23.8,30.45,NNW,331,4.0,5.0,47,0.00,,,0.00,Wunderground v.1.15,2013-03-02 17:25:00,
2013-03-02 11:35:00,43.2,24.3,30.45,NW,323,3.0,6.0,47,0.00,,,0.00,Wunderground v.1.15,2013-03-02 17:35:00,
2013-03-02 11:45:00,44.0,23.5,30.44,WNW,286,3.0,4.0,44,0.00,,,0.00,Wunderground v.1.15,2013-03-02 17:45:00,
2013-03-02 11:55:00,44.3,22.1,30.44,NW,315,4.0,4.0,41,0.00,,,0.00,Wunderground v.1.15,2013-03-02 17:55:00,
2013-03-02 12:00:00,44.4,22.7,30.44,NW,319,4.0,4.0,42,0.00,,,0.00,Wunderground v.1.15,2013-03-02 18:00:00,
2013-03-02 12:10:00,44.5,22.2,30.43,NW,320,4.0,8.0,41,0.00,,,0.00,Wunderground v.1.15,2013-03-02 18:10:00,
2013-03-02 12:15:00,44.5,22.2,30.43,NW,309,5.0,8.0,41,0.00,,,0.00,Wunderground v.1.15,2013-03-02 18:15:00,
2013-03-02 12:25:00,45.2,22.3,30.42,NW,316,4.0,10.0,40,0.00,,,0.00,Wunderground v.1.15,2013-03-02 18:25:00,
2013-03-02 12:35:00,45.8,22.2,30.42,WNW,290,5.0,5.0,39,0.00,,,0.00,Wunderground v.1.15,2013-03-02 18:35:00,
2013-03-02 12:45:00,46.7,23.6,30.41,West,264,4.0,7.0,40,0.00,,,0.00,Wunderground v.1.15,2013-03-02 18:45:00,
2013-03-02 12:55:00,47.4,24.3,30.40,NNW,328,3.0,4.0,40,0.00,,,0.00,Wunderground v.1.15,2013-03-02 18:55:00,
2013-03-02 13:00:00,47.9,23.5,30.40,North,9,3.0,5.0,38,0.00,,,0.00,Wunderground v.1.15,2013-03-02 19:00:00,
2013-03-02 13:10:00,48.2,23.7,30.40,NW,319,5.0,5.0,38,0.00,,,0.00,Wunderground v.1.15,2013-03-02 19:10:00,
2013-03-02 13:20:00,48.3,25.1,30.39,North,355,5.0,6.0,40,0.00,,,0.00,Wunderground v.1.15,2013-03-02 19:20:00,
2013-03-02 13:30:00,49.5,24.9,30.39,WNW,290,4.0,10.0,38,0.00,,,0.00,Wunderground v.1.15,2013-03-02 19:30:00,
2013-03-02 13:35:00,49.5,24.3,30.38,NW,319,5.0,10.0,37,0.00,,,0.00,Wunderground v.1.15,2013-03-02 19:35:00,
2013-03-02 13:45:00,49.9,24.6,30.37,NW,316,5.0,6.0,37,0.00,,,0.00,Wunderground v.1.15,2013-03-02 19:45:00,
2013-03-02 13:50:00,50.3,25.0,30.37,WNW,292,5.0,5.0,37,0.00,,,0.00,Wunderground v.1.15,2013-03-02 19:50:00,
2013-03-02 14:00:00,50.6,25.3,30.36,NW,323,4.0,4.0,37,0.00,,,0.00,Wunderground v.1.15,2013-03-02 20:00:00,
2013-03-02 14:10:00,51.7,25.6,30.35,NNW,330,3.0,5.0,36,0.00,,,0.00,Wunderground v.1.15,2013-03-02 20:10:00,
2013-03-02 14:20:00,51.9,25.1,30.34,West,279,4.0,5.0,35,0.00,,,0.00,Wunderground v.1.15,2013-03-02 20:20:00,
2013-03-02 14:30:00,52.1,24.6,30.34,WNW,288,4.0,4.0,34,0.00,,,0.00,Wunderground v.1.15,2013-03-02 20:30:00,
2013-03-02 14:40:00,52.7,25.1,30.34,NNW,327,2.0,5.0,34,0.00,,,0.00,Wunderground v.1.15,2013-03-02 20:40:00,
2013-03-02 14:50:00,53.0,24.6,30.33,NW,317,3.0,3.0,33,0.00,,,0.00,Wunderground v.1.15,2013-03-02 20:50:00,
2013-03-02 14:55:00,53.4,25.0,30.33,NNW,348,2.0,3.0,33,0.00,,,0.00,Wunderground v.1.15,2013-03-02 20:55:00,
2013-03-02 15:00:00,53.6,24.4,30.33,NW,315,2.0,3.0,32,0.00,,,0.00,Wunderground v.1.15,2013-03-02 21:00:00,
2013-03-02 15:10:00,54.0,24.8,30.33,NNW,336,4.0,4.0,32,0.00,,,0.00,Wunderground v.1.15,2013-03-02 21:10:00,
2013-03-02 15:20:00,53.9,24.7,30.32,North,355,4.0,6.0,32,0.00,,,0.00,Wunderground v.1.15,2013-03-02 21:20:00,
2013-03-02 15:30:00,54.4,25.1,30.32,NW,323,2.0,2.0,32,0.00,,,0.00,Wunderground v.1.15,2013-03-02 21:30:00,
2013-03-02 15:40:00,54.6,25.3,30.32,NNW,331,3.0,3.0,32,0.00,,,0.00,Wunderground v.1.15,2013-03-02 21:40:00,
2013-03-02 15:45:00,54.6,25.3,30.32,NNE,12,3.0,3.0,32,0.00,,,0.00,Wunderground v.1.15,2013-03-02 21:45:00,
2013-03-02 15:55:00,54.8,25.5,30.31,North,5,2.0,2.0,32,0.00,,,0.00,Wunderground v.1.15,2013-03-02 21:55:00,
2013-03-02 16:00:00,54.9,24.8,30.31,NW,317,3.0,3.0,31,0.00,,,0.00,Wunderground v.1.15,2013-03-02 22:00:00,
2013-03-02 16:10:00,54.8,26.2,30.31,NW,325,2.0,2.0,33,0.00,,,0.00,Wunderground v.1.15,2013-03-02 22:10:00,
2013-03-02 16:15:00,54.9,25.6,30.31,WNW,291,2.0,7.0,32,0.00,,,0.00,Wunderground v.1.15,2013-03-02 22:15:00,
2013-03-02 16:25:00,54.9,25.6,30.31,NNW,327,3.0,3.0,32,0.00,,,0.00,Wunderground v.1.15,2013-03-02 22:25:00,
2013-03-02 16:35:00,55.2,25.8,30.31,NW,313,2.0,2.0,32,0.00,,,0.00,Wunderground v.1.15,2013-03-02 22:35:00,
2013-03-02 16:40:00,55.3,25.9,30.31,NNW,339,2.0,2.0,32,0.00,,,0.00,Wunderground v.1.15,2013-03-02 22:40:00,
2013-03-02 16:50:00,55.4,26.0,30.30,NW,304,2.0,2.0,32,0.00,,,0.00,Wunderground v.1.15,2013-03-02 22:50:00,
2013-03-02 17:00:00,55.4,26.0,30.30,WNW,300,3.0,3.0,32,0.00,,,0.00,Wunderground v.1.15,2013-03-02 23:00:00,
2013-03-02 17:10:00,55.3,25.9,30.30,North,350,2.0,5.0,32,0.00,,,0.00,Wunderground v.1.15,2013-03-02 23:10:00,
2013-03-02 17:15:00,55.3,25.9,30.30,NW,311,2.0,5.0,32,0.00,,,0.00,Wunderground v.1.15,2013-03-02 23:15:00,
2013-03-02 17:25:00,55.2,25.8,30.30,North,5,1.0,2.0,32,0.00,,,0.00,Wunderground v.1.15,2013-03-02 23:25:00,
2013-03-02 17:35:00,55.0,26.4,30.30,North,355,1.0,1.0,33,0.00,,,0.00,Wunderground v.1.15,2013-03-02 23:35:00,
2013-03-02 17:45:00,54.8,26.2,30.30,NW,319,0.0,1.0,33,0.00,,,0.00,Wunderground v.1.15,2013-03-02 23:45:00,
2013-03-02 17:55:00,54.5,26.7,30.31,NNW,344,0.0,1.0,34,0.00,,,0.00,Wunderground v.1.15,2013-03-02 23:55:00,
2013-03-02 18:00:00,54.2,26.4,30.30,NNW,344,0.0,0.0,34,0.00,,,0.00,Wunderground v.1.15,2013-03-03 00:00:00,
2013-03-02 18:10:00,53.7,26.0,30.31,NNW,344,0.0,0.0,34,0.00,,,0.00,Wunderground v.1.15,2013-03-03 00:10:00,
2013-03-02 18:15:00,53.5,26.5,30.30,NNW,344,0.0,1.0,35,0.00,,,0.00,Wunderground v.1.15,2013-03-03 00:15:00,
2013-03-02 18:25:00,53.0,26.7,30.31,NNW,344,0.0,0.0,36,0.00,,,0.00,Wunderground v.1.15,2013-03-03 00:25:00,
2013-03-02 18:35:00,52.4,26.9,30.31,NNW,344,0.0,0.0,37,0.00,,,0.00,Wunderground v.1.15,2013-03-03 00:35:00,
2013-03-02 18:40:00,52.2,26.7,30.30,NNW,344,0.0,0.0,37,0.00,,,0.00,Wunderground v.1.15,2013-03-03 00:40:00,
2013-03-02 18:50:00,51.7,26.9,30.31,NNW,344,0.0,0.0,38,0.00,,,0.00,Wunderground v.1.15,2013-03-03 00:50:00,
2013-03-02 18:55:00,51.5,26.7,30.31,NNW,344,0.0,0.0,38,0.00,,,0.00,Wunderground v.1.15,2013-03-03 00:55:00,
2013-03-02 19:00:00,51.2,27.1,30.31,NNW,344,0.0,0.0,39,0.00,,,0.00,Wunderground v.1.15,2013-03-03 01:00:00,
2013-03-02 19:10:00,50.6,26.5,30.30,NNW,344,0.0,0.0,39,0.00,,,0.00,Wunderground v.1.15,2013-03-03 01:10:00,
2013-03-02 19:15:00,50.2,26.8,30.30,NNW,344,0.0,0.0,40,0.00,,,0.00,Wunderground v.1.15,2013-03-03 01:15:00,
2013-03-02 19:25:00,49.7,27.5,30.30,NNW,344,0.0,0.0,42,0.00,,,0.00,Wunderground v.1.15,2013-03-03 01:25:00,
2013-03-02 19:35:00,49.0,27.5,30.30,NNW,344,0.0,0.0,43,0.00,,,0.00,Wunderground v.1.15,2013-03-03 01:35:00,
2013-03-02 19:45:00,48.4,27.5,30.30,NNW,344,0.0,0.0,44,0.00,,,0.00,Wunderground v.1.15,2013-03-03 01:45:00,
2013-03-02 19:55:00,47.9,27.6,30.30,NNW,344,0.0,0.0,45,0.00,,,0.00,Wunderground v.1.15,2013-03-03 01:55:00,
2013-03-02 20:00:00,47.7,27.9,30.30,NNW,344,0.0,0.0,46,0.00,,,0.00,Wunderground v.1.15,2013-03-03 02:00:00,
2013-03-02 20:10:00,47.2,27.5,30.30,NNW,344,0.0,0.0,46,0.00,,,0.00,Wunderground v.1.15,2013-03-03 02:10:00,
2013-03-02 20:15:00,46.9,28.2,30.30,NNW,344,0.0,0.0,48,0.00,,,0.00,Wunderground v.1.15,2013-03-03 02:15:00,
2013-03-02 20:25:00,46.5,27.8,30.30,NNW,344,0.0,0.0,48,0.00,,,0.00,Wunderground v.1.15,2013-03-03 02:25:00,
2013-03-02 20:30:00,46.3,27.7,30.30,NNW,344,0.0,0.0,48,0.00,,,0.00,Wunderground v.1.15,2013-03-03 02:30:00,
2013-03-02 20:35:00,46.1,27.5,30.29,NNW,344,0.0,0.0,48,0.00,,,0.00,Wunderground v.1.15,2013-03-03 02:35:00,
2013-03-02 20:45:00,45.7,28.1,30.29,NNW,344,0.0,0.0,50,0.00,,,0.00,Wunderground v.1.15,2013-03-03 02:45:00,
2013-03-02 20:55:00,45.3,28.2,30.29,NNW,344,0.0,0.0,51,0.00,,,0.00,Wunderground v.1.15,2013-03-03 02:55:00,
2013-03-02 21:00:00,45.1,28.0,30.29,NNW,344,0.0,0.0,51,0.00,,,0.00,Wunderground v.1.15,2013-03-03 03:00:00,
2013-03-02 21:10:00,44.7,28.1,30.30,NNW,344,0.0,0.0,52,0.00,,,0.00,Wunderground v.1.15,2013-03-03 03:10:00,
2013-03-02 21:15:00,44.5,28.0,30.29,NNW,344,0.0,0.0,52,0.00,,,0.00,Wunderground v.1.15,2013-03-03 03:15:00,
2013-03-02 21:25:00,44.1,28.0,30.29,NNW,344,0.0,0.0,53,0.00,,,0.00,Wunderground v.1.15,2013-03-03 03:25:00,
2013-03-02 21:35:00,43.6,28.0,30.30,NNW,344,0.0,0.0,54,0.00,,,0.00,Wunderground v.1.15,2013-03-03 03:35:00,
2013-03-02 21:45:00,43.3,28.6,30.30,NNW,344,0.0,0.0,56,0.00,,,0.00,Wunderground v.1.15,2013-03-03 03:45:00,
2013-03-02 21:55:00,43.0,28.8,30.30,NNW,344,0.0,0.0,57,0.00,,,0.00,Wunderground v.1.15,2013-03-03 03:55:00,
2013-03-02 22:00:00,42.9,28.7,30.30,NNW,344,0.0,0.0,57,0.00,,,0.00,Wunderground v.1.15,2013-03-03 04:00:00,
2013-03-02 22:10:00,42.8,28.6,30.29,NNW,344,0.0,0.0,57,0.00,,,0.00,Wunderground v.1.15,2013-03-03 04:10:00,
2013-03-02 22:15:00,42.7,28.5,30.29,NNW,344,0.0,0.0,57,0.00,,,0.00,Wunderground v.1.15,2013-03-03 04:15:00,
2013-03-02 22:25:00,42.4,28.7,30.29,NNW,344,0.0,0.0,58,0.00,,,0.00,Wunderground v.1.15,2013-03-03 04:25:00,
2013-03-02 22:35:00,42.2,28.9,30.29,NNW,344,0.0,0.0,59,0.00,,,0.00,Wunderground v.1.15,2013-03-03 04:35:00,
2013-03-02 22:45:00,42.2,28.9,30.29,NNW,344,0.0,0.0,59,0.00,,,0.00,Wunderground v.1.15,2013-03-03 04:45:00,
2013-03-02 22:55:00,42.2,28.9,30.28,NNW,344,0.0,0.0,59,0.00,,,0.00,Wunderground v.1.15,2013-03-03 04:55:00,
2013-03-02 23:00:00,42.2,28.9,30.28,NNW,344,0.0,0.0,59,0.00,,,0.00,Wunderground v.1.15,2013-03-03 05:00:00,
2013-03-02 23:05:00,42.2,28.9,30.28,NNW,344,0.0,0.0,59,0.00,,,0.00,Wunderground v.1.15,2013-03-03 05:05:00,
2013-03-02 23:15:00,42.2,28.5,30.27,NNW,344,0.0,0.0,58,0.00,,,0.00,Wunderground v.1.15,2013-03-03 05:15:00,
2013-03-02 23:20:00,42.2,28.5,30.27,NNW,344,0.0,0.0,58,0.00,,,0.00,Wunderground v.1.15,2013-03-03 05:20:00,
2013-03-02 23:25:00,42.2,28.5,30.27,NNW,344,0.0,0.0,58,0.00,,,0.00,Wunderground v.1.15,2013-03-03 05:25:00,
2013-03-02 23:35:00,42.0,28.3,30.27,NNW,344,0.0,0.0,58,0.00,,,0.00,Wunderground v.1.15,2013-03-03 05:35:00,
2013-03-02 23:45:00,41.7,28.0,30.27,NNW,344,0.0,0.0,58,0.00,,,0.00,Wunderground v.1.15,2013-03-03 05:45:00,
2013-03-02 23:55:00,41.4,27.7,30.27,NNW,344,0.0,0.0,58,0.00,,,0.00,Wunderground v.1.15,2013-03-03 05:55:00,